Wind_Speed
61 60 57 53 50 45 40 38 31 35 28 39 36 38 43 55 62 63 59 55 56 55 54 52 49 46 45 43 42 37 33 32 29 27 25 24 27 28 28 26 27 24 26 28
57 56 56 53 51 45 39 35 35 33 35 35 36 39 45 58 63 61 57 54 56 54 55 54 52 47 45 44 43 41 40 39 36 33 33 33 32 31 34 33 31 31 30 30
51 50 55 55 52 48 45 38 37 33 33 38 38 42 50 60 64 58 56 53 51 57 53 52 53 50 48 46 45 45 43 42 40 40 39 37 36 34 34 34 35 35 35 35
47 51 53 53 53 53 50 44 37 37 39 40 42 45 55 64 62 56 53 55 56 58 53 50 49 47 47 47 48 47 47 46 43 42 44 43 42 41 40 40 40 41 41 41
43 48 51 52 54 49 52 46 43 41 46 43 50 51 62 64 62 57 49 52 53 56 57 51 49 48 46 46 49 48 51 49 47 45 47 49 48 47 46 44 43 44 46 48
45 47 48 51 49 45 45 43 40 46 51 48 53 54 64 65 62 54 53 53 55 58 60 53 52 48 44 48 45 53 52 52 50 50 49 50 51 50 50 50 50 51 52 53
46 44 47 49 47 43 43 42 44 46 49 51 56 61 63 67 63 58 52 49 48 53 59 59 57 55 54 45 58 58 56 56 55 54 54 53 54 55 56 58 59 59 59 60
41 43 46 47 45 43 41 41 44 48 48 54 64 66 63 61 62 63 52 54 51 46 51 60 65 62 61 65 62 60 59 57 58 59 58 59 60 61 62 64 64 66 67 67
41 45 45 45 44 45 44 46 48 49 56 61 69 71 64 61 62 61 64 63 58 56 55 59 64 65 63 64 64 64 65 67 66 66 67 68 70 71 71 68 66 66 68 70
40 41 41 41 44 46 47 50 52 57 64 68 72 61 77 68 66 64 65 64 64 62 64 62 61 60 63 64 72 73 73 77 74 73 74 75 74 74 74 69 69 70 71 72
37 36 38 41 44 47 50 54 57 67 70 71 76 70 64 77 80 72 68 68 68 69 63 65 68 63 73 73 76 80 78 82 78 75 76 76 76 76 75 76 76 77 79 77
33 35 40 41 45 48 54 58 62 74 76 76 80 79 76 72 68 69 73 74 77 78 79 73 74 79 79 81 80 80 81 81 83 84 83 81 84 83 84 84 83 83 84 85
32 35 39 41 45 52 58 64 68 81 82 80 83 84 79 79 77 76 74 76 78 80 83 81 82 81 84 87 88 89 88 86 87 87 88 91 92 89 88 89 93 94 93 92
33 35 39 44 48 53 58 66 73 81 86 86 84 89 87 81 84 85 83 80 80 80 80 83 88 86 88 92 92 94 93 94 95 97 95 93 92 92 94 96 98 96 95 98
35 37 37 40 47 51 56 65 73 78 87 90 87 86 92 90 90 92 92 91 89 90 92 89 92 95 98 98 101 101 100 98 100 100 100 100 101 100 99 102 102 102 103 104
35 36 38 39 42 46 53 61 71 77 82 90 93 91 91 97 96 96 99 100 98 95 94 93 96 99 100 100 103 103 103 105 104 103 106 107 107 108 110 113 109 109 111 114
35 36 37 39 40 43 47 54 61 70 76 82 88 94 93 97 101 101 103 105 107 105 105 106 107 106 106 107 108 109 110 111 114 116 116 118 119 119 120 119 119 118 116 119
33 38 41 42 43 44 48 50 54 60 69 73 84 86 90 94 100 106 108 109 110 111 112 114 114 114 114 116 116 117 118 118 119 120 122 122 122 124 126 123 122 124 123 122
31 32 35 37 39 41 45 49 51 55 61 67 73 79 86 91 91 95 105 112 114 115 115 117 118 119 120 121 122 123 124 125 124 125 127 128 126 125 127 128 126 123 124 127
35 40 41 43 46 48 50 52 53 55 57 59 64 71 77 82 87 92 97 102 105 111 114 116 118 121 123 125 127 129 130 129 127 125 126 126 126 125 125 126 126 126 125 124
30 31 35 39 43 46 49 51 53 55 59 61 64 67 70 73 77 80 85 89 93 97 100 104 109 114 119 121 122 121 122 122 123 124 124 123 120 118 117 117 116 116 115 114
24 27 30 34 37 41 46 51 56 60 64 67 70 72 74 76 77 80 83 86 88 90 92 95 98 101 103 105 107 107 108 109 110 110 110 109 109 108 108 108 108 108 107 107
23 27 31 34 39 43 47 50 54 58 61 64 67 69 71 74 75 76 77 79 81 83 85 87 89 90 92 93 95 95 96 97 98 99 100 101 102 102 102 103 102 102 102 102
24 28 32 35 38 42 46 49 52 55 58 61 65 67 70 72 74 75 76 78 78 79 80 81 83 84 85 87 88 89 90 90 91 92 93 94 95 95 95 95 95 95 94 93
30 34 38 41 44 46 49 51 54 56 59 61 63 65 68 70 72 73 74 75 76 77 77 77 77 78 78 79 79 80 80 81 82 83 83 83 84 84 84 84 83 82 81 80
38 43 46 47 49 52 54 56 56 57 59 61 61 62 62 61 61 61 61 62 64 65 66 67 68 69 69 70 71 72 73 73 73 74 74 75 75 75 75 75 75 75 74 74
42 46 48 48 49 51 52 53 55 56 57 58 58 57 56 55 54 53 53 54 55 55 57 58 59 60 61 62 63 64 65 66 66 66 67 67 68 68 69 70 70 70 70 71
Wind_Direction
229 230 231 234 237 235 234 233 221 229 225 224 221 220 202 201 198 202 206 203 201 202 206 208 210 213 216 222 229 232 235 237 241 237 232 233 230 229 222 224 229 237 234 232
228 228 230 231 233 235 236 229 225 229 230 225 219 216 202 201 198 203 207 205 203 208 209 212 214 216 222 227 233 234 235 238 243 247 240 241 238 233 231 236 241 248 245 243
228 228 229 230 231 232 235 230 231 229 228 219 215 211 201 200 197 201 207 209 208 210 208 214 216 219 224 231 234 236 237 240 242 242 239 242 245 244 242 244 252 253 250 248
222 225 228 230 233 230 229 230 230 229 220 214 208 206 199 198 195 199 206 211 211 213 211 214 216 220 226 230 233 233 236 237 240 242 242 244 245 247 249 249 251 251 251 252
216 220 222 225 229 228 232 228 225 223 211 210 204 201 196 196 195 200 207 211 215 217 216 217 220 222 226 232 237 237 237 239 239 243 247 247 246 247 247 248 250 251 254 257
213 214 214 218 220 220 224 217 210 209 210 208 201 200 196 197 197 201 209 212 211 213 216 214 218 222 218 231 243 243 246 247 244 244 247 248 249 247 249 253 256 257 259 261
206 208 213 213 213 211 214 209 199 201 209 204 196 200 199 199 201 202 205 213 214 216 217 218 217 221 225 228 235 238 242 246 249 250 250 250 251 253 254 257 260 262 264 266
207 210 211 211 206 204 200 202 193 201 203 195 196 200 203 202 205 208 198 199 212 219 224 227 227 223 223 227 232 235 239 241 247 249 251 253 254 256 259 262 264 265 266 268
208 211 209 208 203 199 193 197 192 199 195 193 197 200 201 206 208 212 213 216 216 204 218 224 226 227 227 229 233 234 236 239 241 244 247 251 253 255 259 261 264 266 267 269
209 209 208 208 205 201 196 198 194 195 193 194 195 202 204 203 204 210 215 216 219 222 222 220 224 227 229 232 235 236 239 242 244 245 247 251 255 256 258 261 264 266 269 271
207 205 206 207 206 202 201 200 198 195 193 197 195 199 204 213 210 211 214 215 216 218 219 227 226 220 229 233 234 239 241 244 245 246 249 251 254 258 260 263 264 266 268 268
207 203 206 204 204 203 201 201 199 200 195 199 202 205 205 207 214 221 221 220 222 223 227 226 231 232 237 240 241 243 244 248 249 251 253 255 257 258 261 262 264 266 268 269
206 205 206 205 204 203 204 204 201 200 200 201 207 208 211 212 214 216 224 230 232 234 234 234 237 241 242 243 242 244 247 251 253 255 257 258 258 260 263 262 264 268 270 269
205 206 208 208 208 208 209 208 206 205 205 206 208 212 211 213 214 217 221 229 232 233 235 238 239 238 242 247 249 249 252 254 257 259 259 260 263 264 266 267 268 270 272 274
208 207 209 212 214 213 213 213 213 211 209 211 213 216 216 216 218 220 223 225 229 234 237 238 240 242 245 248 250 253 257 258 260 262 262 264 265 268 269 273 273 274 275 277
218 215 214 214 218 220 220 219 217 217 217 216 218 219 220 219 222 223 226 229 232 235 237 240 243 245 248 250 251 254 256 256 258 261 263 262 265 267 269 274 275 277 277 277
226 227 226 226 226 228 228 229 229 226 225 224 225 226 227 226 226 228 230 231 233 237 239 242 244 246 248 251 253 254 255 257 258 258 261 263 265 267 272 275 275 277 278 278
224 230 236 239 241 239 237 237 236 236 235 233 233 233 233 234 233 234 234 235 237 239 241 244 246 248 250 253 255 257 259 261 262 263 265 267 269 270 272 274 275 276 277 279
226 231 234 238 241 244 246 246 246 245 243 243 243 242 242 241 242 241 241 242 243 244 246 248 250 251 254 256 258 260 263 264 265 267 268 269 271 272 272 274 276 278 279 279
224 229 230 230 231 233 237 241 246 249 252 252 251 251 250 249 248 249 250 250 250 250 251 252 254 255 256 257 258 260 262 264 266 267 269 271 273 273 273 274 276 277 278 278
240 243 247 250 252 252 252 252 251 251 251 249 248 248 249 251 252 253 254 255 255 256 256 257 257 258 259 260 262 263 265 265 266 268 269 270 272 272 273 275 276 277 279 280
242 245 248 250 251 251 251 251 251 252 252 252 252 252 253 254 254 255 255 255 256 256 256 256 257 258 259 261 262 264 265 267 268 270 271 273 274 276 276 277 278 279 280 280
249 252 253 255 255 256 257 259 260 261 262 264 264 265 265 265 265 264 264 264 264 265 265 265 266 267 268 269 270 271 272 273 274 274 275 275 276 276 276 277 277 278 279 279
266 268 270 271 270 269 269 269 269 269 268 267 267 268 269 270 271 272 273 273 273 273 272 272 272 271 271 271 272 272 272 273 273 274 274 275 275 276 277 277 278 278 279 280
292 290 287 287 286 285 283 281 279 277 276 276 274 273 272 271 271 272 272 273 273 273 274 274 274 274 274 274 274 274 275 275 275 276 276 277 277 277 278 279 280 280 281 281
292 291 290 288 287 288 286 285 285 285 283 282 281 280 280 280 279 278 277 277 276 275 275 275 275 275 276 276 276 276 277 277 278 278 278 279 279 280 281 281 282 282 283 283
297 295 295 295 294 291 290 288 285 285 285 285 285 286 285 285 284 283 282 281 280 278 277 276 275 275 275 276 276 276 277 278 278 279 280 280 280 280 281 281 281 282 282 282
Height
10283 10297 10309 10320 10329 10339 10349 10358 10368 10368 10377 10376 10386 10391 10400 10409 10420 10430 10441 10454 10465 10472 10479 10486 10492 10499 10502 10506 10511 10519 10524 10528 10531 10534 10538 10541 10543 10545 10547 10550 10551 10553 10554 10555
10275 10289 10300 10309 10316 10328 10339 10349 10356 10361 10362 10371 10376 10383 10392 10402 10414 10426 10437 10449 10460 10467 10472 10479 10486 10491 10494 10500 10506 10511 10516 10519 10523 10527 10529 10531 10535 10537 10539 10541 10542 10544 10545 10547
10268 10281 10290 10298 10307 10319 10329 10336 10344 10350 10354 10361 10368 10376 10385 10395 10408 10420 10431 10442 10451 10459 10464 10471 10477 10482 10487 10492 10497 10502 10506 10510 10514 10517 10520 10522 10525 10527 10530 10532 10532 10535 10537 10538
10259 10269 10279 10289 10295 10305 10314 10323 10333 10339 10343 10352 10360 10368 10380 10391 10405 10416 10425 10434 10442 10451 10457 10463 10469 10474 10479 10483 10486 10492 10495 10499 10503 10507 10510 10512 10515 10516 10518 10519 10521 10522 10524 10525
10247 10255 10267 10274 10281 10292 10303 10309 10320 10328 10334 10344 10350 10362 10375 10387 10398 10410 10419 10426 10434 10442 10450 10456 10462 10465 10471 10474 10476 10480 10483 10488 10492 10496 10498 10500 10503 10504 10505 10507 10509 10510 10511 10513
10235 10245 10253 10260 10271 10282 10291 10298 10310 10318 10327 10335 10344 10358 10370 10381 10392 10402 10411 10418 10425 10432 10440 10446 10451 10457 10462 10467 10470 10470 10473 10475 10480 10483 10486 10487 10489 10491 10492 10493 10495 10497 10498 10499
10227 10237 10243 10251 10262 10274 10283 10292 10302 10312 10320 10330 10342 10352 10363 10375 10385 10396 10404 10411 10418 10424 10431 10437 10441 10446 10452 10456 10457 10458 10461 10464 10466 10469 10471 10473 10475 10476 10477 10478 10479 10480 10482 10482
10224 10229 10236 10245 10256 10266 10277 10285 10296 10304 10314 10325 10334 10344 10355 10367 10377 10388 10396 10401 10408 10415 10423 10427 10430 10434 10438 10439 10442 10445 10448 10451 10453 10455 10456 10458 10460 10461 10462 10463 10464 10464 10465 10465
10218 10222 10231 10240 10251 10260 10269 10276 10287 10296 10306 10314 10325 10335 10347 10359 10370 10377 10386 10392 10399 10406 10411 10414 10418 10421 10424 10427 10430 10431 10432 10434 10437 10439 10442 10443 10444 10445 10446 10446 10447 10447 10446 10445
10212 10219 10229 10237 10246 10255 10262 10269 10278 10286 10296 10305 10317 10326 10335 10344 10355 10366 10374 10381 10388 10393 10397 10400 10404 10409 10411 10413 10413 10414 10417 10417 10420 10422 10424 10425 10426 10427 10427 10428 10427 10426 10426 10425
10207 10216 10223 10231 10240 10248 10256 10262 10270 10277 10287 10297 10306 10316 10324 10332 10341 10349 10358 10366 10373 10379 10383 10386 10391 10391 10392 10393 10394 10395 10398 10399 10402 10404 10405 10406 10407 10407 10407 10408 10407 10406 10405 10404
10205 10212 10217 10225 10232 10241 10247 10253 10261 10269 10277 10287 10295 10303 10312 10320 10329 10334 10341 10347 10353 10358 10364 10366 10370 10374 10376 10377 10379 10379 10381 10382 10384 10385 10386 10387 10388 10388 10387 10387 10386 10384 10383 10382
10202 10207 10212 10219 10226 10232 10238 10243 10251 10259 10265 10273 10281 10292 10300 10309 10317 10322 10327 10332 10337 10340 10344 10348 10351 10354 10356 10358 10358 10358 10361 10362 10363 10364 10365 10365 10366 10366 10366 10364 10363 10361 10360 10357
10195 10201 10207 10212 10218 10224 10231 10237 10242 10248 10255 10261 10268 10276 10287 10295 10302 10308 10313 10316 10319 10324 10328 10332 10333 10335 10337 10338 10338 10340 10340 10340 10341 10341 10341 10342 10342 10342 10341 10340 10337 10336 10334 10332
10190 10195 10201 10208 10213 10219 10226 10231 10235 10240 10247 10253 10258 10265 10273 10280 10285 10290 10294 10296 10300 10303 10306 10309 10311 10313 10314 10315 10316 10317 10317 10317 10316 10316 10316 10317 10316 10315 10313 10313 10311 10308 10305 10301
10188 10194 10198 10202 10208 10214 10218 10222 10227 10233 10238 10243 10247 10250 10256 10263 10268 10272 10276 10280 10284 10286 10288 10290 10291 10292 10293 10293 10293 10293 10294 10294 10294 10293 10291 10289 10288 10287 10285 10283 10281 10278 10276 10272
10186 10191 10196 10200 10203 10208 10212 10217 10221 10226 10230 10234 10238 10242 10245 10248 10251 10255 10257 10258 10261 10263 10265 10266 10267 10268 10267 10267 10267 10268 10267 10267 10267 10267 10265 10263 10261 10260 10257 10254 10251 10249 10245 10240
10181 10185 10190 10193 10197 10200 10203 10208 10212 10216 10219 10221 10224 10227 10231 10234 10237 10238 10237 10239 10240 10241 10241 10242 10242 10243 10243 10243 10242 10242 10242 10241 10240 10238 10237 10235 10231 10229 10227 10223 10219 10215 10211 10206
10174 10178 10181 10184 10188 10191 10194 10197 10200 10203 10206 10208 10210 10211 10213 10215 10217 10219 10220 10222 10222 10221 10220 10220 10220 10220 10220 10219 10218 10216 10214 10212 10209 10207 10204 10201 10197 10195 10192 10188 10184 10180 10175 10171
10163 10164 10167 10169 10170 10172 10177 10182 10183 10186 10188 10190 10192 10193 10194 10194 10194 10194 10196 10198 10199 10198 10198 10196 10195 10194 10191 10188 10186 10183 10181 10179 10176 10173 10170 10167 10164 10159 10154 10151 10148 10143 10139 10133
10160 10162 10164 10165 10166 10166 10167 10167 10167 10167 10167 10167 10167 10166 10166 10166 10167 10168 10168 10168 10167 10166 10165 10163 10162 10160 10159 10157 10154 10151 10148 10144 10141 10138 10135 10132 10128 10123 10119 10116 10112 10109 10106 10101
10153 10153 10153 10153 10153 10153 10152 10151 10149 10147 10146 10145 10143 10142 10141 10141 10139 10138 10137 10136 10134 10132 10131 10129 10127 10125 10122 10120 10118 10116 10113 10110 10107 10104 10102 10099 10096 10092 10089 10085 10082 10078 10073 10068
10144 10143 10142 10142 10141 10139 10138 10136 10135 10133 10131 10128 10126 10124 10121 10119 10117 10114 10112 10110 10108 10106 10104 10101 10099 10097 10094 10092 10089 10087 10084 10082 10078 10075 10071 10068 10064 10060 10056 10052 10048 10043 10038 10033
10139 10138 10136 10133 10130 10128 10125 10123 10119 10116 10112 10108 10104 10100 10096 10093 10090 10087 10084 10080 10078 10075 10073 10071 10068 10066 10063 10061 10058 10055 10051 10048 10045 10041 10038 10034 10031 10027 10023 10019 10015 10011 10007 10001
10128 10125 10122 10119 10116 10111 10107 10103 10099 10095 10091 10087 10082 10078 10074 10069 10065 10061 10058 10055 10051 10048 10045 10042 10040 10037 10034 10031 10028 10026 10023 10020 10016 10013 10009 10006 10001 9997 9994 9991 9987 9983 9979 9975
10121 10116 10111 10107 10101 10096 10090 10085 10080 10074 10069 10064 10058 10054 10049 10045 10040 10037 10033 10030 10027 10024 10021 10017 10015 10012 10009 10006 10002 9999 9996 9993 9990 9987 9984 9981 9977 9973 9969 9965 9961 9958 9954 9950
10109 10102 10096 10091 10085 10078 10072 10066 10060 10054 10048 10042 10037 10032 10028 10023 10019 10016 10012 10008 10005 10002 9998 9994 9992 9989 9986 9983 9980 9977 9974 9971 9967 9964 9961 9958 9954 9950 9946 9942 9938 9934 9930 9926